TimePST,TemperatureF,Dew PointF,Humidity,Sea Level PressureIn,VisibilityMPH,Wind Direction,Wind SpeedMPH,Gust SpeedMPH,PrecipitationIn,Events,Conditions,WindDirDegrees,DateUTC
12:53 AM,30.9,26.1,82,30.61,7.0,East,4.6,-,N/A,,Clear,80,2013-11-22 08:53:00
1:53 AM,30.0,26.1,85,30.60,8.0,ESE,3.5,-,N/A,,Clear,110,2013-11-22 09:53:00
2:53 AM,30.9,27.0,85,30.60,8.0,Calm,Calm,-,N/A,,Clear,0,2013-11-22 10:53:00
3:53 AM,32.0,27.0,82,30.58,8.0,East,5.8,-,N/A,,Clear,90,2013-11-22 11:53:00
4:53 AM,32.0,27.0,82,30.58,8.0,Calm,Calm,-,N/A,,Clear,0,2013-11-22 12:53:00
5:53 AM,30.9,25.0,79,30.58,8.0,East,3.5,-,N/A,,Clear,90,2013-11-22 13:53:00
6:53 AM,28.9,24.1,82,30.57,8.0,Calm,Calm,-,N/A,,Clear,0,2013-11-22 14:53:00
7:53 AM,28.0,24.1,85,30.57,6.0,Calm,Calm,-,N/A,,Clear,0,2013-11-22 15:53:00
8:53 AM,36.0,28.9,76,30.58,7.0,East,4.6,-,N/A,,Clear,100,2013-11-22 16:53:00
9:53 AM,39.9,30.0,68,30.55,6.0,East,6.9,-,N/A,,Haze,90,2013-11-22 17:53:00
10:53 AM,46.0,30.9,56,30.55,7.0,Calm,Calm,-,N/A,,Clear,0,2013-11-22 18:53:00
11:53 AM,48.9,28.9,46,30.53,7.0,ENE,3.5,-,N/A,,Clear,60,2013-11-22 19:53:00
12:53 PM,51.1,28.9,43,30.51,7.0,ENE,8.1,-,N/A,,Clear,60,2013-11-22 20:53:00
1:53 PM,52.0,30.0,43,30.48,7.0,ENE,6.9,-,N/A,,Clear,60,2013-11-22 21:53:00
2:53 PM,50.0,32.0,50,30.46,7.0,ENE,6.9,-,N/A,,Clear,60,2013-11-22 22:53:00
3:53 PM,46.9,32.0,56,30.45,7.0,ENE,8.1,-,N/A,,Clear,60,2013-11-22 23:53:00
4:53 PM,44.1,30.9,60,30.45,8.0,NE,8.1,-,N/A,,Clear,40,2013-11-23 00:53:00
5:53 PM,42.1,30.0,62,30.45,8.0,ENE,5.8,-,N/A,,Clear,60,2013-11-23 01:53:00
6:53 PM,39.9,28.9,65,30.44,8.0,Variable,3.5,-,N/A,,Clear,0,2013-11-23 02:53:00
7:53 PM,39.9,28.9,65,30.43,8.0,East,5.8,-,N/A,,Clear,80,2013-11-23 03:53:00
8:53 PM,39.9,30.0,68,30.42,8.0,ENE,5.8,-,N/A,,Clear,60,2013-11-23 04:53:00
9:53 PM,42.1,30.9,65,30.41,8.0,ENE,3.5,-,N/A,,Clear,70,2013-11-23 05:53:00
10:53 PM,39.0,30.0,70,30.40,8.0,Calm,Calm,-,N/A,,Clear,0,2013-11-23 06:53:00
11:53 PM,39.9,32.0,73,30.39,8.0,Calm,Calm,-,N/A,,Clear,0,2013-11-23 07:53:00